Hourly Weather Recife

Today, 12 August, Wednesday

Time Temperature Precipitation Wind Pressure Humidity
00:00 +23°C° 0.1 mm 4 mps 760 mmHg 87%
01:00 +23°C° 0.1 mm 4 mps 760 mmHg 88%
02:00 +23°C° 0.2 mm 4 mps 759 mmHg 88%
03:00 +22°C° 0.2 mm 4 mps 759 mmHg 89%
04:00 +22°C° 0.2 mm 4 mps 758 mmHg 89%
05:00 +22°C° 0.2 mm 4 mps 759 mmHg 90%
06:00 +22°C° 0.2 mm 4 mps 759 mmHg 90%
07:00 +22°C° 0.2 mm 4 mps 759 mmHg 90%
08:00 +25°C° 0.3 mm 4 mps 759 mmHg 85%
09:00 +26°C° 0.3 mm 4 mps 760 mmHg 81%
10:00 +27°C° 0.3 mm 4 mps 760 mmHg 76%
11:00 +28°C° 0.3 mm 5 mps 760 mmHg 74%
12:00 +28°C° 0.3 mm 5 mps 759 mmHg 72%
13:00 +29°C° 0.3 mm 5 mps 759 mmHg 69%
14:00 +28°C° 0.3 mm 5 mps 759 mmHg 71%
15:00 +28°C° 0.3 mm 5 mps 758 mmHg 73%
16:00 +28°C° 0.3 mm 5 mps 757 mmHg 75%
17:00 +27°C° 0.2 mm 5 mps 758 mmHg 79%
18:00 +26°C° 0.2 mm 5 mps 758 mmHg 82%
19:00 +25°C° 0.2 mm 5 mps 758 mmHg 85%
20:00 +25°C° 0.3 mm 4 mps 759 mmHg 86%
21:00 +25°C° 0.3 mm 4 mps 759 mmHg 86%
22:00 +25°C° 0.3 mm 4 mps 759 mmHg 86%
23:00 +25°C° 0.6 mm 4 mps 759 mmHg 87%

Tomorrow, 13 August, Thursday

Time Temperature Precipitation Wind Pressure Humidity
00:00 +25°C° 0.6 mm 4 mps 759 mmHg 87%
01:00 +25°C° 0.6 mm 4 mps 759 mmHg 88%
02:00 +25°C° 0.7 mm 4 mps 758 mmHg 88%
03:00 +25°C° 0.7 mm 5 mps 758 mmHg 88%
04:00 +25°C° 0.7 mm 5 mps 758 mmHg 88%
05:00 +25°C° 0.5 mm 4 mps 758 mmHg 87%
06:00 +25°C° 0.5 mm 4 mps 759 mmHg 86%
07:00 +25°C° 0.5 mm 4 mps 759 mmHg 85%
08:00 +26°C° 0.2 mm 5 mps 759 mmHg 82%
09:00 +27°C° 0.2 mm 5 mps 760 mmHg 78%
10:00 +28°C° 0.2 mm 6 mps 760 mmHg 75%
11:00 +28°C° 0.6 mm 6 mps 760 mmHg 76%
12:00 +27°C° 0.6 mm 6 mps 760 mmHg 78%
13:00 +27°C° 0.6 mm 6 mps 759 mmHg 79%
14:00 +27°C° 0.1 mm 6 mps 759 mmHg 76%
15:00 +28°C° 0.1 mm 6 mps 759 mmHg 72%
16:00 +28°C° 0.1 mm 6 mps 758 mmHg 69%
17:00 +27°C° 0 mm 5 mps 758 mmHg 73%
18:00 +26°C° 0 mm 5 mps 759 mmHg 76%
19:00 +25°C° 0 mm 4 mps 759 mmHg 80%
20:00 +25°C° 0 mm 4 mps 760 mmHg 81%
21:00 +25°C° 0 mm 4 mps 760 mmHg 82%
22:00 +23°C° 0 mm 4 mps 760 mmHg 83%
23:00 +23°C° 0 mm 4 mps 760 mmHg 83%

Day after tomorrow, 14 August, Friday

Time Temperature Precipitation Wind Pressure Humidity
00:00 +23°C° 0 mm 4 mps 760 mmHg 84%
01:00 +23°C° 0 mm 4 mps 759 mmHg 84%
02:00 +23°C° 0.1 mm 4 mps 759 mmHg 85%
03:00 +23°C° 0.1 mm 4 mps 758 mmHg 85%
04:00 +23°C° 0.1 mm 4 mps 758 mmHg 86%
05:00 +23°C° 0.1 mm 4 mps 758 mmHg 86%
06:00 +23°C° 0.1 mm 4 mps 758 mmHg 86%
07:00 +23°C° 0.1 mm 4 mps 758 mmHg 87%
08:00 +26°C° 0.1 mm 4 mps 759 mmHg 80%
09:00 +27°C° 0.1 mm 5 mps 759 mmHg 73%
10:00 +29°C° 0.1 mm 5 mps 760 mmHg 66%
11:00 +29°C° 0.1 mm 5 mps 759 mmHg 65%
12:00 +29°C° 0.1 mm 5 mps 759 mmHg 64%
13:00 +30°C° 0.1 mm 5 mps 758 mmHg 63%
14:00 +29°C° 0.1 mm 5 mps 758 mmHg 66%
15:00 +29°C° 0.1 mm 5 mps 758 mmHg 68%
16:00 +28°C° 0.1 mm 5 mps 757 mmHg 70%
17:00 +27°C° 0.1 mm 5 mps 758 mmHg 75%
18:00 +26°C° 0.1 mm 4 mps 758 mmHg 80%
19:00 +25°C° 0.1 mm 4 mps 758 mmHg 84%
20:00 +25°C° 0.1 mm 4 mps 759 mmHg 85%
21:00 +25°C° 0.1 mm 4 mps 759 mmHg 85%
22:00 +25°C° 0.1 mm 4 mps 759 mmHg 86%
23:00 +25°C° 0 mm 4 mps 759 mmHg 86%

15 August, Saturday

Time Temperature Precipitation Wind Pressure Humidity
00:00 +23°C° 0 mm 4 mps 759 mmHg 87%
01:00 +24°C° 0 mm 3 mps 759 mmHg 87%
02:00 +24°C° 0 mm 3 mps 759 mmHg 87%
03:00 +24°C° 0 mm 3 mps 758 mmHg 87%
04:00 +24°C° 0 mm 3 mps 758 mmHg 87%
05:00 +24°C° 0 mm 3 mps 758 mmHg 87%
06:00 +24°C° 0 mm 3 mps 758 mmHg 87%
07:00 +24°C° 0 mm 3 mps 758 mmHg 87%
08:00 +26°C° 0 mm 4 mps 759 mmHg 82%
09:00 +27°C° 0 mm 4 mps 759 mmHg 76%
10:00 +28°C° 0 mm 5 mps 759 mmHg 70%
11:00 +29°C° 0 mm 4 mps 759 mmHg 67%
12:00 +30°C° 0 mm 4 mps 758 mmHg 64%
13:00 +30°C° 0 mm 4 mps 758 mmHg 61%
14:00 +30°C° 0 mm 4 mps 757 mmHg 63%
15:00 +29°C° 0 mm 4 mps 757 mmHg 65%
16:00 +29°C° 0 mm 4 mps 756 mmHg 68%
17:00 +28°C° 0 mm 3 mps 757 mmHg 73%
18:00 +27°C° 0 mm 3 mps 757 mmHg 78%
19:00 +26°C° 0 mm 3 mps 757 mmHg 83%
20:00 +26°C° 0.1 mm 3 mps 758 mmHg 85%
21:00 +25°C° 0.1 mm 3 mps 758 mmHg 87%
22:00 +25°C° 0.1 mm 3 mps 758 mmHg 89%
23:00 +25°C° 0.3 mm 3 mps 758 mmHg 90%

16 August, Sunday

Time Temperature Precipitation Wind Pressure Humidity
00:00 +25°C° 0.3 mm 2 mps 758 mmHg 90%
01:00 +25°C° 0.3 mm 2 mps 758 mmHg 91%
02:00 +25°C° 0.4 mm 2 mps 757 mmHg 91%
03:00 +25°C° 0.4 mm 3 mps 757 mmHg 92%
04:00 +25°C° 0.4 mm 3 mps 757 mmHg 92%
05:00 +25°C° 0.7 mm 3 mps 757 mmHg 91%
06:00 +25°C° 0.7 mm 3 mps 757 mmHg 91%
07:00 +25°C° 0.7 mm 3 mps 757 mmHg 90%
08:00 +26°C° 0.9 mm 4 mps 758 mmHg 87%
09:00 +27°C° 0.9 mm 5 mps 758 mmHg 84%
10:00 +28°C° 0.9 mm 6 mps 759 mmHg 81%
11:00 +28°C° 0.4 mm 6 mps 758 mmHg 79%
12:00 +28°C° 0.4 mm 6 mps 758 mmHg 77%
13:00 +29°C° 0.4 mm 6 mps 758 mmHg 75%
14:00 +29°C° 0.2 mm 6 mps 757 mmHg 74%
15:00 +29°C° 0.2 mm 5 mps 757 mmHg 74%
16:00 +29°C° 0.2 mm 5 mps 756 mmHg 73%
17:00 +28°C° 0.1 mm 5 mps 757 mmHg 77%
18:00 +27°C° 0.1 mm 5 mps 757 mmHg 81%
19:00 +26°C° 0.1 mm 5 mps 757 mmHg 85%
20:00 +26°C° 0.1 mm 5 mps 757 mmHg 85%
21:00 +26°C° 0.1 mm 5 mps 758 mmHg 86%
22:00 +26°C° 0.1 mm 5 mps 758 mmHg 87%
23:00 +26°C° 0.4 mm 5 mps 758 mmHg 87%

17 August, Monday

Time Temperature Precipitation Wind Pressure Humidity
00:00 +25°C° 0.4 mm 5 mps 758 mmHg 87%
01:00 +25°C° 0.4 mm 5 mps 757 mmHg 88%
02:00 +25°C° 0.3 mm 5 mps 757 mmHg 87%
03:00 +25°C° 0.3 mm 4 mps 757 mmHg 87%
04:00 +25°C° 0.3 mm 4 mps 757 mmHg 87%
05:00 +25°C° 0.1 mm 4 mps 757 mmHg 87%
06:00 +25°C° 0.1 mm 4 mps 757 mmHg 88%
07:00 +25°C° 0.1 mm 4 mps 758 mmHg 88%
08:00 +26°C° 0.2 mm 4 mps 758 mmHg 84%
09:00 +27°C° 0.2 mm 5 mps 758 mmHg 79%
10:00 +28°C° 0.2 mm 5 mps 759 mmHg 75%
11:00 +29°C° 0.1 mm 5 mps 759 mmHg 71%
12:00 +29°C° 0.1 mm 5 mps 758 mmHg 68%
13:00 +30°C° 0.1 mm 5 mps 758 mmHg 64%
14:00 +29°C° 0 mm 5 mps 758 mmHg 65%
15:00 +29°C° 0 mm 5 mps 757 mmHg 66%
16:00 +29°C° 0 mm 4 mps 757 mmHg 67%
17:00 +28°C° 0 mm 4 mps 757 mmHg 71%
18:00 +27°C° 0 mm 4 mps 757 mmHg 76%
19:00 +25°C° 0 mm 4 mps 757 mmHg 80%
20:00 +25°C° 0 mm 3 mps 758 mmHg 81%
21:00 +25°C° 0 mm 3 mps 758 mmHg 82%
22:00 +25°C° 0 mm 3 mps 758 mmHg 83%
23:00 +25°C° 0.1 mm 3 mps 758 mmHg 85%
Show more